Hourly Data Report for July 03, 2021

FLIN FLON
MANITOBA
Current Station Operator: ECCC - MSC

54°41'00.000" N
101°41'00.000" W
303.90 m
5050919
71954
WFO

Download Data

Hourly Data (July 2021)
Hourly Data Report for July 3, 2021
TIME
LST
Temp Definition
°C
Dew Point Definition
°C
Rel Hum Definition
%
Precip. Amount Definition
mm

Wind Dir Definition
10's deg

Wind Spd Definition
km/h
Visibility Definition
km
Stn Press Definition
kPa
Hmdx Definition


Wind Chill Definition


Weather Definition


00:00 25.2 19.1 69 0.0 18 10   97.03 32   LegendNANA
01:00 24.1 18.9 73 0.0 19 8   96.99 31   LegendNANA
02:00 24.1 18.3 70 0.0 16 9   96.96 30   LegendNANA
03:00 23.5 18.6 74 0.0 18 7   96.92 30   LegendNANA
04:00 22.7 18.1 75 0.0 19 7   96.91 29   LegendNANA
05:00 22.9 18.6 77 0.0 13 4   96.88 29   LegendNANA
06:00 23.3 18.6 75 0.0 20 7   96.80 30   LegendNANA
07:00 24.7 18.3 68 0.0 19 13   96.72 31   LegendNANA
08:00 25.9 17.5 60 0.0 17 12   96.67 32   LegendNANA
09:00 27.8 18.1 56 0.0 20 13   96.68 34   LegendNANA
10:00 28.5 16.7 49 0.0 16 10   96.60 34   LegendNANA
11:00 29.0 17.5 50 0.0 20 12   96.60 35   LegendNANA
12:00 29.8 18.5 51 0.0 21 12   96.63 36   LegendNANA
13:00 31.7 18.8 46 0.0 22 16   96.61 38   LegendNANA
14:00 32.4 19.6 47 0.0 21 17   96.61 40   LegendNANA
15:00 33.6 19.5 44 0.0 23 16   96.57 41   LegendNANA
16:00 33.6 20.1 45 0.0 28 20   96.55 41   LegendNANA
17:00 32.2 19.0 46 0.0 30 17   96.56 39   LegendNANA
18:00 32.4 16.8 39 0.0 30 20   96.56 38   LegendNANA
19:00 31.5 17.9 44 0.0 32 13   96.61 37   LegendNANA
20:00 30.2 18.3 49 0.0 33 16   96.65 36   LegendNANA
21:00 28.4 17.6 52 0.0 33 15   96.66 34   LegendNANA
22:00 26.7 17.4 57 0.0 32 13   96.71 32   LegendNANA
23:00 26.1 16.9 57 0.0 31 13   96.72 31   LegendNANA

Notes on Data Quality.

Legend

  • E = Estimated
  • M = Missing
  • NA = Not Available*
  • [empty] = Indicates an unobserved value
Date modified: